Notices

What’s New in latest Release from January 14th 2021:

·       In Historical Hourly Data Report, users can switch between Local Standard Time (LST) and Universal Time Coordinates (UTC) time.

·       In Historical Hourly Data Report, we have an addition of a new column to display hourly precipitation data for the stations where the data are available, from 2001 onwards.

·       Expanded the Search Options of the Canadian Historical Weather Radar, users now able to select 24 hours (1 image every hour) image viewing duration.

Please note that the IDF dataset is available through this link: Intensity-Duration-Frequency (IDF) Files .

Hourly Data Report for November 25, 2019

HOPE A
BRITISH COLUMBIA
Current Station Operator: NAVCAN

49°22'06.000" N
121°29'53.000" W
39.00 m
1113542
71187
YHE

Download Data

Hourly Data (November 2019)
Hourly Data Report for November 25, 2019
TIME
LST
Temp Definition
°C
Dew Point Definition
°C
Rel Hum Definition
%
Precip. Amount Definition
mm

Wind Dir Definition
10's deg

Wind Spd Definition
km/h
Visibility Definition
km
Stn Press Definition
kPa
Hmdx Definition


Wind Chill Definition


Weather Definition


00:00 6.2 3.0 80 0.0 19 8 16.1 101.44     Rain
01:00 7.0 3.6 79 0.0 LegendMM 5 16.1 101.41     LegendNANA
02:00 5.4 3.9 90 0.5 LegendMM 4 14.5 101.39     Rain
03:00 5.8 3.5 85 0.0 LegendMM 5 16.1 101.41     LegendNANA
04:00 5.4 3.4 87 0.0   0 16.1 101.36     Rain
05:00 4.8 3.2 89 0.0 LegendMM 4 16.1 101.36     LegendNANA
06:00 4.6 3.6 93 2.0 26 15 6.4 101.41     Moderate Rain,Fog
07:00 4.4 2.8 89 1.2 27 11 16.1 101.44     Rain
08:00 3.7 2.5 92 0.8 26 17 16.1 101.49     Moderate Rain
09:00 3.8 2.6 92 0.2 23 9 16.1 101.55     Rain
10:00 4.2 2.7 90 0.0 22 4 16.1 101.60     LegendNANA
11:00 4.4 2.8 89 0.0   0 16.1 101.57     LegendNANA
12:00 5.0 3.5 90 0.0   0 16.1 101.50     LegendNANA
13:00 5.2 3.2 87 0.0 24 5 16.1 101.44     LegendNANA
14:00 6.2 3.3 82 0.0 24 5 16.1 101.39     LegendNANA
15:00 5.2 2.8 84 0.2   0 12.9 101.41     Rain
16:00 3.9 3.0 94 1.2 LegendMM 4 9.7 101.45     Moderate Rain,Fog
17:00 3.0 2.6 97 0.5   0 16.1 101.47     LegendNANA
18:00 3.3 2.9 97 0.0   0 16.1 101.49     Rain
19:00 3.2 2.9 98 0.2   0 8.1 101.48     Rain,Fog
20:00 3.1 2.8 98 0.2   0 9.7 101.45     Rain,Fog
21:00 2.5 2.2 98 0.0 13 4 16.1 101.44     LegendNANA
22:00 2.6 2.3 98 0.0 LegendMM 4 16.1 101.40     LegendNANA
23:00 2.7 2.4 98 0.0 LegendMM 4 9.7 101.36     Fog

Notes on Data Quality.

Legend

  • E = Estimated
  • M = Missing
  • NA = Not Available*
  • [empty] = Indicates an unobserved value
Date modified: